Location: Newark
(33.6333°S, 78.8500°W)
Time: 02:50:38
(UTC+00:00)

Courier 1B - Pass Details

Date: 29 September 2019
Orbit: 962 x 1209 km, 28.3° (Epoch: 15 October)

Event Time Altitude Azimuth Distance (km) Brightness Sun altitude
Rises 01:39:10 0° 272° (W) 4,029 11.6 -29.6°
Reaches altitude 10° 01:42:53 10° 288° (WNW) 3,022 10.6 -30.3°
Maximum altitude 01:47:59 20° 331° (NNW) 2,294 9.4 -31.2°
Enters shadow 01:48:35 20° 338° (NNW) 2,297 9.3 -31.4°
Drops below altitude 10° 01:52:53 10° 16° (NNE) 2,881 - -32.1°
Sets 01:56:20 0° 32° (NNE) 3,785 - -32.8°
